カタリナ彗星

C/2006 CK10 ( Catalina )

English version
Home page
Total 6,336 html files since Dec. 4, 1995
Updated on February 12, 2007

---------------------------------------------------------------------

・ プロフィール

発見日 2006年2月4日
発見光度 19.0等
発見者 Catalina Sky Survey

・ 軌道要素

The following orbital elements are taken from MPC 57794:

Epoch 2006 July 4.0 TT = JDT 2453920.5
T 2006 July 3.2777 TT                                   MPC
q   1.752177             (2000.0)            P               Q
z  +0.004601       Peri.  143.4555      -0.0791284      +0.8479683
 +/-0.000003       Node   243.8100      +0.7187990      +0.4128160
e   0.991938       Incl.  144.2626      +0.6907002      -0.3324646
From 263 observations 2006 Feb. 4-Oct. 3, mean residual 0".6.

・ 星図

・ 光度変化

        m1 = 12.5 + 5 logΔ + 10.0 log r

---------------------------------------------------------------------

軌道要素はMPCのEphemerides and Orbital Elementsに掲載されたものです。
星図は StellaNavigator Ver.2.0 for Windows (アストロアーツ 編著 / アスキー出版局刊) で作成したものです。
光度グラフはComet for Windowsで作成したものです。

---------------------------------------------------------------------

Copyright(C) 1995-2008 Seiichi Yoshida (comet@aerith.net). All rights reserved.